Weather in Ivanivka

Ukraine / Kirovohrad Region     48°26′12″N   32°08′05″E
temp.,
°C
wind,
m/s
gust,
m/s
humid.,
%
clouds,
%
prec.,
mm/h
press.,
hPa
HPBL,
m
10 may, mon
mon1000:00+6nw22782 0.0 102619
03:00+5nnw22800 0.0 102711
06:00+5nnw22820 0.0 102714
09:00+11n23605 0.0 1027599
12:00+14n45415 0.0 10261824
15:00+16n56360 0.0 10241839
18:00+15n57465 0.0 10231753
21:00+9n466732 0.0 102382
11 may, tue
tue1100:00+8nnw4107419 0.0 1022179
03:00+8nnw6147191 0.0 1021352
06:00+10nnw7146496 0.0 1019410
09:00+11nnw61271100 0.0 1018430
12:00+14n7107040 0.0 1017604
15:00+18nne81062100 0.0 10161427
18:00+14ne597867 0.1 1017860
21:00+10ne378479 0.1 1017147
12 may, wed
wed1200:00+7ne39861 0.0 1017198
03:00+6ne5109282 0.0 1017371
06:00+8ene697098 0.0 1017756
09:00+9ene687188 0.0 1017855
12:00+12ene5662100 0.1 10151565
15:00+10ne567389 0.4 1015602
18:00+13ene335757 0.0 10131253
21:00+8ene227930 0.1 101421
13 may, thu
thu1300:00+7sse228554 0.0 101412
03:00+6sse228471 0.0 101322
06:00+6se338641 0.0 101360
09:00+12se46634 0.0 1013652
12:00+16sse5649100 0.0 10121342
15:00+19sse5648100 0.0 10121557
18:00+18se466167 0.0 10111091
21:00+13ese487988 0.1 1011117
14 may, fri
fri1400:00+13e487595 0.0 1010158
03:00+11se3490100 0.0 101059
06:00+11s349127 0.0 101080
09:00+16s3472100 0.0 1010491
12:00+20ssw3452100 0.0 10101023
15:00+22ssw3445100 0.0 10101496
18:00+22ssw3451100 0.0 10101707
21:00+17ese126541 0.1 101011